• In India
  • List of Countries
  • For 7 days
  • Water Temperature
  • Satellite Maps
  • Weather Map
  • Weather Widgets
  • user-avatar
    Login

    Hourly Weather Popow

    Today, 22 September, Saturday

    Time Temperature Precipitation Wind Pressure Humidity
    00:00 +19°C° 0 mm 4 mps 745 mmHg 61%
    01:00 +19°C° 0 mm 4 mps 745 mmHg 62%
    02:00 +19°C° 0.1 mm 5 mps 746 mmHg 65%
    03:00 +17°C° 0.1 mm 5 mps 747 mmHg 68%
    04:00 +17°C° 0.1 mm 6 mps 747 mmHg 71%
    05:00 +16°C° 0.6 mm 6 mps 748 mmHg 75%
    06:00 +14°C° 0.6 mm 5 mps 749 mmHg 79%
    07:00 +13°C° 0.6 mm 5 mps 750 mmHg 83%
    08:00 +13°C° 0.1 mm 4 mps 751 mmHg 80%
    09:00 +14°C° 0.1 mm 4 mps 751 mmHg 77%
    10:00 +14°C° 0.1 mm 4 mps 751 mmHg 74%
    11:00 +14°C° 0 mm 4 mps 751 mmHg 70%
    12:00 +15°C° 0 mm 4 mps 751 mmHg 65%
    13:00 +15°C° 0 mm 4 mps 751 mmHg 61%
    14:00 +17°C° 0 mm 4 mps 751 mmHg 58%
    15:00 +17°C° 0 mm 4 mps 751 mmHg 55%
    16:00 +17°C° 0 mm 4 mps 751 mmHg 52%
    17:00 +16°C° 0 mm 3 mps 751 mmHg 57%
    18:00 +14°C° 0 mm 3 mps 751 mmHg 61%
    19:00 +14°C° 0 mm 2 mps 751 mmHg 65%
    20:00 +13°C° 0 mm 2 mps 751 mmHg 66%
    21:00 +13°C° 0 mm 2 mps 751 mmHg 66%
    22:00 +13°C° 0 mm 2 mps 751 mmHg 67%
    23:00 +13°C° 0 mm 2 mps 751 mmHg 67%

    Tomorrow, 23 September, Sunday

    Time Temperature Precipitation Wind Pressure Humidity
    00:00 +11°C° 0 mm 3 mps 751 mmHg 66%
    01:00 +11°C° 0 mm 3 mps 751 mmHg 65%
    02:00 +11°C° 0 mm 3 mps 751 mmHg 67%
    03:00 +10°C° 0 mm 3 mps 751 mmHg 69%
    04:00 +10°C° 0 mm 3 mps 750 mmHg 71%
    05:00 +11°C° 0 mm 3 mps 750 mmHg 70%
    06:00 +11°C° 0 mm 3 mps 750 mmHg 69%
    07:00 +12°C° 0 mm 4 mps 750 mmHg 67%
    08:00 +13°C° 0 mm 4 mps 750 mmHg 62%
    09:00 +15°C° 0 mm 5 mps 750 mmHg 57%
    10:00 +17°C° 0 mm 6 mps 750 mmHg 52%
    11:00 +17°C° 0.1 mm 5 mps 750 mmHg 52%
    12:00 +17°C° 0.1 mm 5 mps 749 mmHg 53%
    13:00 +16°C° 0.1 mm 5 mps 749 mmHg 53%
    14:00 +17°C° 0 mm 4 mps 748 mmHg 55%
    15:00 +17°C° 0 mm 4 mps 748 mmHg 57%
    16:00 +16°C° 0 mm 3 mps 747 mmHg 59%
    17:00 +16°C° 0.1 mm 3 mps 747 mmHg 63%
    18:00 +14°C° 0.1 mm 3 mps 746 mmHg 67%
    19:00 +14°C° 0.1 mm 2 mps 746 mmHg 71%
    20:00 +13°C° 0.6 mm 3 mps 745 mmHg 75%
    21:00 +13°C° 0.6 mm 3 mps 744 mmHg 79%
    22:00 +13°C° 0.6 mm 4 mps 743 mmHg 84%
    23:00 +13°C° 1.5 mm 5 mps 741 mmHg 82%

    Day after tomorrow, 24 September, Monday

    Time Temperature Precipitation Wind Pressure Humidity
    00:00 +14°C° 1.5 mm 6 mps 739 mmHg 81%
    01:00 +14°C° 1.5 mm 7 mps 737 mmHg 80%
    02:00 +15°C° 3.4 mm 8 mps 736 mmHg 81%
    03:00 +15°C° 3.4 mm 8 mps 735 mmHg 82%
    04:00 +16°C° 3.4 mm 9 mps 734 mmHg 84%
    05:00 +13°C° 0.5 mm 10 mps 735 mmHg 83%
    06:00 +10°C° 0.5 mm 12 mps 737 mmHg 83%
    07:00 +9°C° 0.5 mm 13 mps 738 mmHg 82%
    08:00 +9°C° 0.1 mm 12 mps 740 mmHg 80%
    09:00 +9°C° 0.1 mm 11 mps 742 mmHg 77%
    10:00 +9°C° 0.1 mm 10 mps 744 mmHg 74%
    11:00 +9°C° 0.3 mm 10 mps 745 mmHg 71%
    12:00 +11°C° 0.3 mm 10 mps 746 mmHg 68%
    13:00 +11°C° 0.3 mm 10 mps 747 mmHg 65%
    14:00 +11°C° 0.2 mm 10 mps 748 mmHg 64%
    15:00 +11°C° 0.2 mm 10 mps 748 mmHg 62%
    16:00 +11°C° 0.2 mm 9 mps 749 mmHg 61%
    17:00 +10°C° 0.1 mm 9 mps 749 mmHg 64%
    18:00 +9°C° 0.1 mm 8 mps 750 mmHg 68%
    19:00 +7°C° 0.1 mm 8 mps 751 mmHg 71%
    20:00 +8°C° 0 mm 7 mps 751 mmHg 71%
    21:00 +6°C° 0 mm 7 mps 752 mmHg 71%
    22:00 +6°C° 0 mm 7 mps 753 mmHg 70%
    23:00 +7°C° 0 mm 6 mps 753 mmHg 70%

    25 September, Tuesday

    Time Temperature Precipitation Wind Pressure Humidity
    00:00 +5°C° 0 mm 6 mps 754 mmHg 70%
    01:00 +5°C° 0 mm 6 mps 755 mmHg 70%
    02:00 +6°C° 0 mm 5 mps 755 mmHg 71%
    03:00 +5°C° 0 mm 5 mps 756 mmHg 73%
    04:00 +5°C° 0 mm 5 mps 756 mmHg 74%
    05:00 +5°C° 0 mm 5 mps 757 mmHg 73%
    06:00 +5°C° 0 mm 6 mps 757 mmHg 72%
    07:00 +5°C° 0 mm 6 mps 758 mmHg 71%
    08:00 +7°C° 0 mm 6 mps 758 mmHg 64%
    09:00 +9°C° 0 mm 7 mps 759 mmHg 58%
    10:00 +10°C° 0 mm 7 mps 759 mmHg 51%
    11:00 +11°C° 0.1 mm 7 mps 759 mmHg 49%
    12:00 +11°C° 0.1 mm 7 mps 759 mmHg 46%
    13:00 +11°C° 0.1 mm 7 mps 760 mmHg 44%
    14:00 +11°C° 0 mm 7 mps 760 mmHg 45%
    15:00 +11°C° 0 mm 6 mps 760 mmHg 46%
    16:00 +12°C° 0 mm 5 mps 760 mmHg 46%
    17:00 +10°C° 0 mm 5 mps 760 mmHg 50%
    18:00 +10°C° 0 mm 4 mps 760 mmHg 54%
    19:00 +7°C° 0 mm 4 mps 760 mmHg 58%
    20:00 +7°C° 0 mm 4 mps 760 mmHg 58%
    21:00 +7°C° 0 mm 5 mps 760 mmHg 58%
    22:00 +7°C° 0 mm 5 mps 760 mmHg 58%
    23:00 +7°C° 0 mm 5 mps 760 mmHg 59%

    26 September, Wednesday

    Time Temperature Precipitation Wind Pressure Humidity
    00:00 +7°C° 0 mm 6 mps 759 mmHg 59%
    01:00 +7°C° 0 mm 6 mps 759 mmHg 60%
    02:00 +6°C° 0.1 mm 7 mps 759 mmHg 63%
    03:00 +6°C° 0.1 mm 7 mps 758 mmHg 65%
    04:00 +6°C° 0.1 mm 8 mps 758 mmHg 68%
    05:00 +6°C° 0.2 mm 8 mps 758 mmHg 70%
    06:00 +7°C° 0.2 mm 8 mps 757 mmHg 73%
    07:00 +7°C° 0.2 mm 8 mps 757 mmHg 75%
    08:00 +7°C° 0.4 mm 8 mps 757 mmHg 76%
    09:00 +9°C° 0.4 mm 7 mps 758 mmHg 77%
    10:00 +9°C° 0.4 mm 7 mps 758 mmHg 77%
    11:00 +10°C° 0.1 mm 7 mps 758 mmHg 73%
    12:00 +11°C° 0.1 mm 7 mps 758 mmHg 69%
    13:00 +12°C° 0.1 mm 7 mps 758 mmHg 65%
    14:00 +13°C° 0.1 mm 6 mps 758 mmHg 66%
    15:00 +13°C° 0.1 mm 5 mps 758 mmHg 68%
    16:00 +12°C° 0.1 mm 5 mps 758 mmHg 70%
    17:00 +12°C° 0 mm 4 mps 758 mmHg 76%
    18:00 +11°C° 0 mm 3 mps 759 mmHg 82%
    19:00 +10°C° 0 mm 3 mps 759 mmHg 88%
    20:00 +10°C° 0 mm 3 mps 759 mmHg 88%
    21:00 +10°C° 0 mm 2 mps 759 mmHg 87%
    22:00 +10°C° 0 mm 2 mps 759 mmHg 87%
    23:00 +10°C° 0 mm 2 mps 759 mmHg 87%

    27 September, Thursday

    Time Temperature Precipitation Wind Pressure Humidity
    00:00 +9°C° 0 mm 2 mps 759 mmHg 87%
    01:00 +9°C° 0 mm 2 mps 759 mmHg 88%
    02:00 +9°C° 0 mm 3 mps 758 mmHg 88%
    03:00 +8°C° 0 mm 3 mps 758 mmHg 88%
    04:00 +8°C° 0 mm 3 mps 758 mmHg 88%
    05:00 +9°C° 0 mm 3 mps 758 mmHg 85%
    06:00 +9°C° 0 mm 3 mps 757 mmHg 82%
    07:00 +10°C° 0 mm 4 mps 757 mmHg 78%
    08:00 +11°C° 0 mm 4 mps 757 mmHg 71%
    09:00 +13°C° 0 mm 4 mps 757 mmHg 64%
    10:00 +15°C° 0 mm 5 mps 756 mmHg 56%
    11:00 +16°C° 0 mm 5 mps 756 mmHg 52%
    12:00 +17°C° 0 mm 5 mps 755 mmHg 48%
    13:00 +19°C° 0 mm 5 mps 754 mmHg 44%
    14:00 +19°C° 0 mm 5 mps 754 mmHg 46%
    15:00 +19°C° 0 mm 4 mps 753 mmHg 47%
    16:00 +19°C° 0 mm 4 mps 753 mmHg 49%
    17:00 +17°C° 0 mm 4 mps 752 mmHg 52%
    18:00 +15°C° 0 mm 4 mps 752 mmHg 55%
    19:00 +13°C° 0 mm 4 mps 752 mmHg 58%
    20:00 +13°C° 0 mm 4 mps 752 mmHg 58%
    21:00 +13°C° 0 mm 4 mps 752 mmHg 58%
    22:00 +12°C° 0 mm 5 mps 751 mmHg 58%
    23:00 +12°C° 0 mm 5 mps 751 mmHg 59%
    Show more